| time (UTC) | temp F | wind direction | speed MPH | gust MPH | rain 1hr in | rain 24hr in | rain mn in | humidity % | barometer mb |
| 20260901064138 | 53 | 167 | 0.0 | 0.0 | 0.00 | 0.00 | 0.00 | 99 | 1026.8 |
| 20260901063635 | 53 | 176 | 0.0 | 0.0 | 0.00 | 0.00 | 0.00 | 99 | 1026.5 |
| 20260901063130 | 53 | 179 | 0.0 | 0.0 | 0.00 | 0.00 | 0.00 | 99 | 1026.5 |
| 20260901062626 | 53 | 219 | 0.0 | 1.0 | 0.00 | 0.00 | 0.00 | 99 | 1026.2 |
| 20260901062121 | 53 | 172 | 0.0 | 0.0 | 0.00 | 0.00 | 0.00 | 99 | 1026.5 |
| 20260901061617 | 53 | 200 | 0.0 | 0.0 | 0.00 | 0.00 | 0.00 | 99 | 1026.4 |
| 20260901061111 | 53 | 198 | 0.0 | 0.0 | 0.00 | 0.00 | 0.00 | 99 | 1026.4 |
| 20260901060606 | 53 | 211 | 0.0 | 0.0 | 0.00 | 0.00 | 0.00 | 99 | 1026.4 |
| 20260901055556 | 53 | 204 | 0.0 | 0.0 | 0.00 | 0.19 | 0.19 | 99 | 1026.2 |
| 20260901055054 | 53 | 208 | 0.0 | 0.0 | 0.00 | 0.19 | 0.19 | 99 | 1026.3 |
| 20260901054550 | 54 | 183 | 0.0 | 0.0 | 0.00 | 0.19 | 0.19 | 99 | 1025.9 |
| 20260901054046 | 54 | 162 | 0.0 | 0.0 | 0.00 | 0.19 | 0.19 | 99 | 1025.9 |
| 20260901053542 | 54 | 167 | 0.0 | 0.0 | 0.00 | 0.19 | 0.19 | 98 | 1025.8 |
| 20260901053037 | 53 | 167 | 0.0 | 0.0 | 0.00 | 0.19 | 0.19 | 98 | 1025.7 |
| 20260901052538 | 54 | 167 | 0.0 | 0.0 | 0.00 | 0.19 | 0.19 | 98 | 1025.8 |
| 20260901052032 | 54 | 167 | 0.0 | 0.0 | 0.00 | 0.19 | 0.19 | 98 | 1026.2 |
| 20260901051527 | 55 | 145 | 0.0 | 0.0 | 0.00 | 0.19 | 0.19 | 98 | 1026.3 |
| 20260901051026 | 54 | 143 | 0.0 | 0.0 | 0.00 | 0.19 | 0.19 | 98 | 1026.0 |
| 20260901050521 | 54 | 209 | 0.0 | 0.0 | 0.00 | 0.19 | 0.19 | 98 | 1026.4 |
| 20260901050017 | 54 | 170 | 0.0 | 0.0 | 0.00 | 0.19 | 0.19 | 98 | 1026.2 |
| 20260901045512 | 54 | 186 | 0.0 | 0.0 | 0.00 | 0.19 | 0.19 | 98 | 1026.2 |
| 20260901045006 | 54 | 206 | 0.0 | 0.0 | 0.00 | 0.19 | 0.19 | 98 | 1026.3 |
| 20260901044502 | 55 | 106 | 0.0 | 0.0 | 0.00 | 0.19 | 0.19 | 98 | 1026.0 |
| 20260901043958 | 55 | 160 | 0.0 | 0.0 | 0.00 | 0.19 | 0.19 | 98 | 1026.3 |
| 20260901043454 | 55 | 185 | 0.0 | 0.0 | 0.00 | 0.19 | 0.19 | 98 | 1026.0 |
| 20260901042953 | 55 | 196 | 0.0 | 0.0 | 0.00 | 0.19 | 0.19 | 98 | 1026.3 |
| 20260901042447 | 55 | 198 | 0.0 | 0.0 | 0.00 | 0.19 | 0.19 | 98 | 1026.4 |
| 20260901041943 | 55 | 143 | 0.0 | 0.0 | 0.00 | 0.19 | 0.19 | 98 | 1026.2 |
| 20260901041438 | 55 | 143 | 0.0 | 0.0 | 0.00 | 0.19 | 0.19 | 98 | 1026.4 |
| 20260901040937 | 55 | 143 | 0.0 | 0.0 | 0.00 | 0.19 | 0.19 | 98 | 1026.3 |
| 20260901040432 | 55 | 126 | 0.0 | 0.0 | 0.00 | 0.19 | 0.19 | 98 | 1026.3 |
| 20260901035926 | 55 | 130 | 0.0 | 0.0 | 0.00 | 0.19 | 0.19 | 98 | 1026.0 |
| 20260901035424 | 55 | 176 | 0.0 | 0.0 | 0.00 | 0.19 | 0.19 | 98 | 1026.0 |
| 20260901034923 | 55 | 147 | 0.0 | 0.0 | 0.00 | 0.19 | 0.19 | 97 | 1025.9 |
| 20260901034418 | 55 | 144 | 0.0 | 0.0 | 0.00 | 0.19 | 0.19 | 97 | 1026.0 |
| 20260901033913 | 55 | 193 | 0.0 | 0.0 | 0.00 | 0.19 | 0.19 | 97 | 1026.0 |
| 20260901033413 | 55 | 193 | 0.0 | 0.0 | 0.00 | 0.19 | 0.19 | 97 | 1025.9 |
| 20260901032911 | 56 | 153 | 0.0 | 0.0 | 0.00 | 0.19 | 0.19 | 97 | 1025.7 |
| 20260901032410 | 56 | 124 | 0.0 | 0.0 | 0.00 | 0.19 | 0.19 | 97 | 1025.2 |
| 20260901031906 | 56 | 181 | 0.0 | 0.0 | 0.00 | 0.19 | 0.19 | 96 | 1025.2 |
| 20260901031401 | 56 | 124 | 0.0 | 0.0 | 0.00 | 0.19 | 0.19 | 96 | 1025.2 |
| 20260901030901 | 56 | 161 | 0.0 | 0.0 | 0.00 | 0.19 | 0.19 | 96 | 1025.7 |
| 20260901030356 | 56 | 180 | 0.0 | 0.0 | 0.00 | 0.19 | 0.19 | 96 | 1025.4 |
| 20260901025855 | 56 | 195 | 0.0 | 0.0 | 0.00 | 0.19 | 0.19 | 96 | 1025.4 |
| 20260901025350 | 57 | 103 | 0.0 | 0.0 | 0.00 | 0.19 | 0.19 | 96 | 1025.4 |
| 20260901024845 | 56 | 139 | 0.0 | 0.0 | 0.00 | 0.19 | 0.19 | 96 | 1025.2 |
| 20260901024344 | 57 | 157 | 0.0 | 0.0 | 0.00 | 0.19 | 0.19 | 95 | 1024.9 |
| 20260901023843 | 57 | 161 | 0.0 | 0.0 | 0.00 | 0.19 | 0.19 | 95 | 1024.8 |
| 20260901023338 | 57 | 201 | 0.0 | 0.0 | 0.00 | 0.19 | 0.19 | 94 | 1024.9 |
| 20260901022833 | 57 | 185 | 0.0 | 0.0 | 0.00 | 0.19 | 0.19 | 92 | 1024.6 |
| 20260901022329 | 58 | 187 | 0.0 | 0.0 | 0.00 | 0.19 | 0.19 | 93 | 1024.8 |
| 20260901021824 | 58 | 194 | 0.0 | 0.0 | 0.00 | 0.19 | 0.19 | 93 | 1024.6 |
| 20260901021319 | 58 | 171 | 0.0 | 0.0 | 0.00 | 0.19 | 0.19 | 94 | 1024.7 |
| 20260901020814 | 58 | 187 | 0.0 | 0.0 | 0.00 | 0.19 | 0.19 | 94 | 1024.8 |
| 20260901020309 | 58 | 192 | 0.0 | 1.0 | 0.00 | 0.19 | 0.19 | 96 | 1024.7 |
| 20260901015804 | 58 | 191 | 0.0 | 0.0 | 0.00 | 0.19 | 0.19 | 96 | 1024.5 |
| 20260901015301 | 58 | 185 | 0.0 | 0.0 | 0.00 | 0.19 | 0.19 | 96 | 1024.7 |
| 20260901014759 | 58 | 182 | 0.0 | 0.0 | 0.00 | 0.19 | 0.19 | 95 | 1024.7 |
| 20260901014255 | 58 | 183 | 0.0 | 0.0 | 0.00 | 0.19 | 0.19 | 95 | 1024.8 |
| 20260901013751 | 59 | 166 | 0.0 | 0.0 | 0.00 | 0.19 | 0.19 | 95 | 1024.9 |
| 20260901013246 | 59 | 188 | 0.0 | 0.0 | 0.00 | 0.19 | 0.19 | 94 | 1025.2 |
| 20260901012742 | 59 | 188 | 0.0 | 0.0 | 0.00 | 0.19 | 0.19 | 93 | 1024.7 |
| 20260901012241 | 59 | 200 | 0.0 | 0.0 | 0.00 | 0.19 | 0.19 | 92 | 1024.8 |
| 20260901011737 | 60 | 157 | 0.0 | 0.0 | 0.00 | 0.19 | 0.19 | 92 | 1024.6 |
| 20260901011232 | 60 | 181 | 0.0 | 0.0 | 0.00 | 0.19 | 0.19 | 92 | 1024.2 |
| 20260901010726 | 60 | 207 | 0.0 | 0.0 | 0.00 | 0.19 | 0.19 | 92 | 1024.7 |
| 20260901010221 | 61 | 184 | 0.0 | 0.0 | 0.00 | 0.19 | 0.19 | 92 | 1024.8 |
| 20260901005720 | 61 | 151 | 0.0 | 0.0 | 0.00 | 0.19 | 0.19 | 92 | 1024.8 |
| 20260901005215 | 61 | 164 | 0.0 | 0.0 | 0.00 | 0.19 | 0.19 | 92 | 1024.8 |
| 20260901004715 | 61 | 164 | 0.0 | 0.0 | 0.00 | 0.19 | 0.19 | 92 | 1024.7 |
| 20260901004209 | 61 | 168 | 0.0 | 0.0 | 0.00 | 0.19 | 0.19 | 91 | 1024.9 |
| 20260901003704 | 61 | 146 | 0.0 | 0.0 | 0.00 | 0.19 | 0.19 | 89 | 1024.9 |
| 20260901003203 | 61 | 201 | 0.0 | 0.0 | 0.00 | 0.19 | 0.19 | 90 | 1025.2 |
| 20260901002657 | 61 | 123 | 0.0 | 0.0 | 0.00 | 0.19 | 0.19 | 88 | 1025.4 |
| 20260901002152 | 62 | 141 | 0.0 | 0.0 | 0.00 | 0.19 | 0.19 | 88 | 1025.6 |
| 20260901001648 | 62 | 182 | 0.0 | 0.0 | 0.00 | 0.19 | 0.19 | 89 | 1025.6 |
| 20260901001143 | 62 | 159 | 0.0 | 0.0 | 0.00 | 0.19 | 0.19 | 87 | 1025.4 |
| 20260901000638 | 62 | 83 | 0.0 | 1.0 | 0.00 | 0.19 | 0.19 | 86 | 1025.6 |
| 20260901000133 | 62 | 153 | 0.0 | 0.0 | 0.00 | 0.19 | 0.19 | 86 | 1025.8 |
| 20260831235627 | 62 | 55 | 0.0 | 1.0 | 0.00 | 0.19 | 0.19 | 87 | 1025.7 |
| 20260831235122 | 62 | 114 | 0.0 | 1.0 | 0.00 | 0.19 | 0.19 | 87 | 1025.7 |
| 20260831234621 | 62 | 177 | 1.0 | 1.0 | 0.00 | 0.19 | 0.19 | 89 | 1025.8 |
| 20260831234117 | 62 | 123 | 0.0 | 0.0 | 0.00 | 0.19 | 0.19 | 88 | 1025.9 |
| 20260831233612 | 62 | 141 | 1.0 | 1.0 | 0.00 | 0.19 | 0.19 | 87 | 1025.6 |
| 20260831233108 | 62 | 121 | 0.0 | 0.0 | 0.00 | 0.19 | 0.19 | 88 | 1025.9 |
| 20260831232603 | 62 | 177 | 0.0 | 0.0 | 0.00 | 0.19 | 0.19 | 90 | 1025.8 |
| 20260831232059 | 61 | 193 | 0.0 | 0.0 | 0.00 | 0.19 | 0.19 | 92 | 1026.2 |
| 20260831231555 | 61 | 156 | 0.0 | 0.0 | 0.00 | 0.19 | 0.19 | 92 | 1025.9 |
| 20260831231050 | 61 | 147 | 0.0 | 0.0 | 0.00 | 0.19 | 0.19 | 93 | 1025.8 |
| 20260831230545 | 60 | 195 | 0.0 | 0.0 | 0.00 | 0.19 | 0.19 | 90 | 1026.3 |
| 20260831230040 | 60 | 146 | 0.0 | 0.0 | 0.00 | 0.19 | 0.19 | 91 | 1026.3 |
| 20260831225535 | 61 | 100 | 0.0 | 1.0 | 0.00 | 0.19 | 0.19 | 93 | 1026.0 |
| 20260831225030 | 61 | 205 | 0.0 | 0.0 | 0.00 | 0.19 | 0.19 | 94 | 1026.0 |
| 20260831224525 | 61 | 149 | 0.0 | 1.0 | 0.00 | 0.19 | 0.19 | 94 | 1026.3 |
| 20260831224020 | 61 | 141 | 0.0 | 0.0 | 0.00 | 0.19 | 0.19 | 93 | 1026.2 |
| 20260831223515 | 61 | 144 | 0.0 | 0.0 | 0.00 | 0.19 | 0.19 | 93 | 1026.0 |
| 20260831223011 | 61 | 221 | 0.0 | 0.0 | 0.00 | 0.19 | 0.19 | 94 | 1025.9 |
| 20260831222508 | 61 | 113 | 0.0 | 0.0 | 0.00 | 0.19 | 0.19 | 94 | 1026.4 |
| 20260831222007 | 61 | 131 | 0.0 | 0.0 | 0.07 | 0.19 | 0.19 | 94 | 1026.4 |
| 20260831221503 | 61 | 115 | 0.0 | 0.0 | 0.07 | 0.19 | 0.19 | 93 | 1027.1 |
| 20260831220958 | 61 | 194 | 0.0 | 0.0 | 0.00 | 0.18 | 0.18 | 92 | 1026.9 |
| 20260831220453 | 62 | 200 | 0.0 | 0.0 | 0.05 | 0.18 | 0.18 | 93 | 1027.0 |
| 20260831215948 | 62 | 194 | 0.0 | 0.0 | 0.05 | 0.18 | 0.18 | 92 | 1027.1 |
| 20260831215444 | 61 | 179 | 0.0 | 0.0 | 0.00 | 0.17 | 0.17 | 92 | 1027.0 |
| 20260831214940 | 61 | 187 | 0.0 | 0.0 | 0.00 | 0.17 | 0.17 | 93 | 1026.8 |
| 20260831214437 | 61 | 221 | 0.0 | 0.0 | 0.00 | 0.17 | 0.17 | 94 | 1026.7 |
| 20260831213933 | 61 | 163 | 0.0 | 0.0 | 0.00 | 0.17 | 0.17 | 93 | 1027.0 |
| 20260831213429 | 61 | 194 | 0.0 | 0.0 | 0.07 | 0.17 | 0.17 | 93 | 1026.7 |
| 20260831212929 | 61 | 184 | 0.0 | 0.0 | 0.07 | 0.17 | 0.17 | 93 | 1026.8 |
| 20260831212425 | 61 | 164 | 0.0 | 0.0 | 0.05 | 0.16 | 0.16 | 93 | 1026.8 |
| 20260831211925 | 61 | 162 | 0.0 | 0.0 | 0.05 | 0.16 | 0.16 | 91 | 1026.9 |
| 20260831211420 | 61 | 152 | 0.0 | 0.0 | 0.00 | 0.15 | 0.15 | 90 | 1027.0 |
| 20260831210919 | 61 | 145 | 0.0 | 0.0 | 0.00 | 0.15 | 0.15 | 90 | 1026.9 |
| 20260831210415 | 61 | 161 | 0.0 | 0.0 | 0.00 | 0.15 | 0.15 | 89 | 1026.8 |
| 20260831205911 | 62 | 125 | 0.0 | 1.0 | 0.00 | 0.15 | 0.15 | 87 | 1026.9 |
| 20260831205406 | 62 | 94 | 0.0 | 1.0 | 0.07 | 0.15 | 0.15 | 90 | 1026.9 |
| 20260831204901 | 62 | 155 | 1.0 | 1.0 | 0.07 | 0.15 | 0.15 | 91 | 1026.9 |
| 20260831204400 | 61 | 79 | 2.0 | 3.0 | 0.00 | 0.14 | 0.14 | 90 | 1027.1 |
| 20260831203859 | 61 | 149 | 0.0 | 0.0 | 0.05 | 0.14 | 0.14 | 91 | 1027.0 |
| 20260831203354 | 61 | 162 | 0.0 | 0.0 | 0.12 | 0.14 | 0.14 | 92 | 1027.0 |
| 20260831202852 | 61 | 114 | 0.0 | 1.0 | 0.07 | 0.13 | 0.13 | 91 | 1027.4 |
| 20260831202348 | 61 | 133 | 0.0 | 0.0 | 0.00 | 0.12 | 0.12 | 90 | 1027.6 |
| 20260831201847 | 61 | 127 | 0.0 | 0.0 | 0.00 | 0.12 | 0.12 | 90 | 1027.6 |
| 20260831201346 | 61 | 94 | 0.0 | 0.0 | 0.00 | 0.12 | 0.12 | 88 | 1027.5 |
| 20260831200843 | 61 | 120 | 0.0 | 0.0 | 0.00 | 0.12 | 0.12 | 87 | 1027.4 |
| 20260831200337 | 61 | 87 | 1.0 | 1.0 | 0.05 | 0.12 | 0.12 | 90 | 1027.3 |
| 20260831195832 | 61 | 45 | 1.0 | 2.0 | 0.12 | 0.12 | 0.12 | 91 | 1027.3 |
| 20260831195328 | 61 | 123 | 0.0 | 0.0 | 0.07 | 0.11 | 0.11 | 91 | 1027.5 |
| 20260831194824 | 61 | 139 | 0.0 | 0.0 | 0.07 | 0.11 | 0.11 | 90 | 1027.5 |
| 20260831194319 | 61 | 144 | 0.0 | 0.0 | 0.00 | 0.10 | 0.10 | 91 | 1027.7 |
| 20260831193818 | 62 | 161 | 0.0 | 0.0 | 0.05 | 0.10 | 0.10 | 91 | 1027.6 |
| 20260831193313 | 61 | 169 | 0.0 | 0.0 | 0.05 | 0.10 | 0.10 | 90 | 1027.7 |
| 20260831192808 | 61 | 189 | 0.0 | 0.0 | 0.07 | 0.09 | 0.09 | 89 | 1027.5 |
| 20260831192305 | 61 | 57 | 0.0 | 0.0 | 0.07 | 0.09 | 0.09 | 90 | 1027.3 |
| 20260831191759 | 62 | 199 | 0.0 | 0.0 | 0.05 | 0.08 | 0.08 | 87 | 1028.0 |
| 20260831191255 | 62 | 191 | 0.0 | 0.0 | 0.05 | 0.08 | 0.08 | 86 | 1028.1 |
| 20260831190750 | 62 | 167 | 0.0 | 0.0 | 0.07 | 0.07 | 0.07 | 87 | 1028.1 |
| 20260831190244 | 62 | 200 | 0.0 | 0.0 | 0.07 | 0.07 | 0.07 | 84 | 1028.0 |
| 20260831185738 | 63 | 233 | 0.0 | 1.0 | 0.00 | 0.06 | 0.06 | 83 | 1027.7 |
| 20260831185235 | 63 | 157 | 0.0 | 1.0 | 0.00 | 0.06 | 0.06 | 82 | 1027.9 |
| 20260831184733 | 63 | 242 | 1.0 | 1.0 | 0.00 | 0.06 | 0.06 | 80 | 1028.0 |
| 20260831184229 | 63 | 206 | 0.0 | 0.0 | 0.00 | 0.06 | 0.06 | 78 | 1027.6 |
| 20260831183724 | 64 | 200 | 0.0 | 1.0 | 0.00 | 0.06 | 0.06 | 77 | 1027.9 |
| 20260831183224 | 65 | 188 | 1.0 | 1.0 | 0.00 | 0.06 | 0.06 | 74 | 1027.9 |
| 20260831182723 | 66 | 238 | 2.0 | 2.0 | 0.00 | 0.06 | 0.06 | 74 | 1027.4 |
| 20260831182218 | 67 | 201 | 0.0 | 1.0 | 0.00 | 0.06 | 0.06 | 67 | 1027.1 |
| 20260831181718 | 68 | 177 | 0.0 | 0.0 | 0.00 | 0.06 | 0.06 | 68 | 1027.1 |
| 20260831181214 | 68 | 214 | 1.0 | 1.0 | 0.00 | 0.06 | 0.06 | 63 | 1026.9 |
| 20260831180708 | 69 | 213 | 0.0 | 1.0 | 0.00 | 0.06 | 0.06 | 64 | 1026.9 |
| 20260831180203 | 69 | 154 | 0.0 | 0.0 | 0.00 | 0.06 | 0.06 | 64 | 1026.9 |
| 20260831175703 | 70 | 161 | 0.0 | 0.0 | 0.00 | 0.06 | 0.06 | 64 | 1026.8 |
| 20260831175200 | 70 | 186 | 0.0 | 0.0 | 0.00 | 0.06 | 0.06 | 57 | 1026.8 |
| 20260831174659 | 70 | 181 | 0.0 | 0.0 | 0.00 | 0.06 | 0.06 | 60 | 1026.8 |
| 20260831174155 | 69 | 181 | 0.0 | 0.0 | 0.00 | 0.06 | 0.06 | 58 | 1026.8 |
| 20260831173654 | 69 | 129 | 0.0 | 0.0 | 0.00 | 0.06 | 0.06 | 63 | 1026.4 |
| 20260831173149 | 69 | 150 | 0.0 | 0.0 | 0.00 | 0.06 | 0.06 | 64 | 1026.7 |
| 20260831172649 | 68 | 144 | 0.0 | 0.0 | 0.00 | 0.06 | 0.06 | 67 | 1026.7 |
| 20260831172144 | 69 | 135 | 0.0 | 0.0 | 0.00 | 0.06 | 0.06 | 64 | 1026.5 |
| 20260831171639 | 69 | 154 | 0.0 | 0.0 | 0.00 | 0.06 | 0.06 | 61 | 1026.5 |
| 20260831171137 | 69 | 194 | 0.0 | 0.0 | 0.00 | 0.06 | 0.06 | 63 | 1026.5 |
| 20260831170632 | 69 | 204 | 0.0 | 0.0 | 0.00 | 0.06 | 0.06 | 64 | 1026.8 |
| 20260831170129 | 69 | 193 | 0.0 | 0.0 | 0.00 | 0.06 | 0.06 | 62 | 1026.7 |
| 20260831165625 | 69 | 201 | 0.0 | 1.0 | 0.00 | 0.06 | 0.06 | 60 | 1026.7 |
| 20260831165122 | 69 | 176 | 0.0 | 0.0 | 0.00 | 0.06 | 0.06 | 67 | 1026.4 |
| 20260831164617 | 69 | 187 | 0.0 | 0.0 | 0.00 | 0.06 | 0.06 | 58 | 1026.7 |
| 20260831164112 | 69 | 192 | 0.0 | 1.0 | 0.00 | 0.06 | 0.06 | 57 | 1026.7 |
| 20260831163607 | 68 | 164 | 0.0 | 1.0 | 0.00 | 0.06 | 0.06 | 60 | 1026.7 |
| 20260831163103 | 67 | 167 | 0.0 | 0.0 | 0.00 | 0.06 | 0.06 | 60 | 1026.8 |
| 20260831162602 | 67 | 163 | 1.0 | 1.0 | 0.00 | 0.06 | 0.06 | 61 | 1026.3 |
| 20260831162100 | 66 | 148 | 0.0 | 1.0 | 0.00 | 0.06 | 0.06 | 65 | 1026.7 |
| 20260831161556 | 65 | 118 | 0.0 | 0.0 | 0.00 | 0.06 | 0.06 | 65 | 1026.5 |
| 20260831161053 | 65 | 159 | 0.0 | 0.0 | 0.00 | 0.06 | 0.06 | 71 | 1026.8 |
| 20260831160551 | 64 | 187 | 0.0 | 1.0 | 0.00 | 0.06 | 0.06 | 73 | 1026.5 |
| 20260831160047 | 65 | 186 | 0.0 | 0.0 | 0.00 | 0.06 | 0.06 | 74 | 1026.5 |
| 20260831155541 | 65 | 175 | 0.0 | 1.0 | 0.00 | 0.06 | 0.06 | 72 | 1026.7 |
| 20260831155037 | 65 | 154 | 0.0 | 0.0 | 0.00 | 0.06 | 0.06 | 73 | 1026.4 |
| 20260831154533 | 64 | 197 | 0.0 | 0.0 | 0.00 | 0.06 | 0.06 | 70 | 1026.5 |
| 20260831154033 | 64 | 183 | 0.0 | 0.0 | 0.00 | 0.06 | 0.06 | 74 | 1026.5 |
| 20260831153532 | 63 | 139 | 0.0 | 0.0 | 0.00 | 0.06 | 0.06 | 80 | 1026.4 |
| 20260831153029 | 62 | 139 | 0.0 | 0.0 | 0.00 | 0.06 | 0.06 | 74 | 1026.5 |
| 20260831152524 | 62 | 70 | 1.0 | 1.0 | 0.00 | 0.06 | 0.06 | 74 | 1026.5 |
| 20260831152020 | 62 | 133 | 0.0 | 0.0 | 0.00 | 0.06 | 0.06 | 78 | 1026.4 |
| 20260831151519 | 62 | 99 | 0.0 | 1.0 | 0.00 | 0.06 | 0.06 | 80 | 1026.5 |
| 20260831151019 | 62 | 111 | 1.0 | 1.0 | 0.00 | 0.06 | 0.06 | 77 | 1026.4 |
| 20260831150514 | 63 | 156 | 0.0 | 0.0 | 0.00 | 0.06 | 0.06 | 79 | 1026.3 |
| 20260831150011 | 62 | 128 | 0.0 | 0.0 | 0.00 | 0.06 | 0.06 | 76 | 1026.5 |
| 20260831145505 | 62 | 138 | 0.0 | 0.0 | 0.00 | 0.06 | 0.06 | 83 | 1026.8 |
| 20260831145001 | 61 | 107 | 1.0 | 1.0 | 0.00 | 0.06 | 0.06 | 84 | 1026.7 |
| 20260831144456 | 60 | 140 | 0.0 | 0.0 | 0.00 | 0.06 | 0.06 | 88 | 1026.3 |
| 20260831143952 | 59 | 132 | 0.0 | 0.0 | 0.00 | 0.06 | 0.06 | 90 | 1026.7 |
| 20260831143446 | 59 | 140 | 0.0 | 0.0 | 0.00 | 0.06 | 0.06 | 92 | 1026.5 |
| 20260831142942 | 59 | 172 | 0.0 | 0.0 | 0.00 | 0.06 | 0.06 | 93 | 1026.7 |
| 20260831142438 | 58 | 172 | 0.0 | 0.0 | 0.00 | 0.06 | 0.06 | 92 | 1026.5 |
| 20260831141932 | 58 | 140 | 0.0 | 0.0 | 0.00 | 0.06 | 0.06 | 92 | 1026.3 |
| 20260831141426 | 57 | 167 | 0.0 | 0.0 | 0.00 | 0.06 | 0.06 | 93 | 1026.4 |
| 20260831140921 | 57 | 167 | 0.0 | 0.0 | 0.00 | 0.06 | 0.06 | 94 | 1026.2 |
| 20260831140415 | 57 | 149 | 0.0 | 0.0 | 0.00 | 0.06 | 0.06 | 94 | 1026.0 |
| 20260831135914 | 57 | 144 | 0.0 | 0.0 | 0.00 | 0.06 | 0.06 | 95 | 1026.2 |
| 20260831135409 | 57 | 152 | 0.0 | 0.0 | 0.00 | 0.06 | 0.06 | 95 | 1025.4 |
| 20260831134904 | 57 | 102 | 1.0 | 1.0 | 0.00 | 0.06 | 0.06 | 95 | 1025.7 |
| 20260831134401 | 57 | 190 | 0.0 | 0.0 | 0.00 | 0.06 | 0.06 | 94 | 1025.6 |
| 20260831133859 | 56 | 189 | 0.0 | 0.0 | 0.00 | 0.06 | 0.06 | 95 | 1025.6 |
| 20260831133354 | 56 | 195 | 0.0 | 0.0 | 0.00 | 0.06 | 0.06 | 94 | 1025.6 |
| 20260831132849 | 56 | 183 | 0.0 | 0.0 | 0.00 | 0.06 | 0.06 | 95 | 1025.7 |
| 20260831132345 | 56 | 199 | 0.0 | 0.0 | 0.00 | 0.06 | 0.06 | 94 | 1025.6 |
| 20260831131844 | 56 | 201 | 0.0 | 0.0 | 0.00 | 0.06 | 0.06 | 94 | 1025.4 |
| 20260831131340 | 56 | 160 | 0.0 | 0.0 | 0.00 | 0.06 | 0.06 | 93 | 1025.6 |
| 20260831130835 | 57 | 127 | 0.0 | 0.0 | 0.00 | 0.06 | 0.06 | 92 | 1025.2 |
| 20260831130331 | 57 | 149 | 0.0 | 0.0 | 0.00 | 0.06 | 0.06 | 93 | 1025.1 |
| 20260831125830 | 57 | 99 | 0.0 | 0.0 | 0.00 | 0.06 | 0.06 | 93 | 1025.1 |
| 20260831125325 | 57 | 173 | 0.0 | 0.0 | 0.00 | 0.06 | 0.06 | 92 | 1025.3 |
| 20260831124825 | 57 | 205 | 0.0 | 0.0 | 0.00 | 0.06 | 0.06 | 91 | 1025.1 |
| 20260831124322 | 58 | 71 | 1.0 | 1.0 | 0.00 | 0.06 | 0.06 | 87 | 1024.8 |
| 20260831123821 | 57 | 211 | 1.0 | 1.0 | 0.00 | 0.06 | 0.06 | 88 | 1024.9 |
| 20260831123320 | 57 | 186 | 1.0 | 2.0 | 0.00 | 0.06 | 0.06 | 92 | 1025.1 |
| 20260831122815 | 57 | 66 | 0.0 | 1.0 | 0.00 | 0.06 | 0.06 | 94 | 1025.1 |
| 20260831122310 | 57 | 163 | 1.0 | 1.0 | 0.07 | 0.06 | 0.06 | 96 | 1025.8 |
| 20260831121805 | 56 | 200 | 0.0 | 1.0 | 0.07 | 0.06 | 0.06 | 96 | 1025.7 |
| 20260831121301 | 57 | 85 | 0.0 | 1.0 | 0.00 | 0.05 | 0.05 | 97 | 1025.6 |
| 20260831120756 | 57 | 133 | 0.0 | 0.0 | 0.00 | 0.05 | 0.05 | 97 | 1026.0 |
| 20260831120251 | 56 | 174 | 0.0 | 0.0 | 0.00 | 0.05 | 0.05 | 97 | 1026.2 |
| 20260831115746 | 56 | 191 | 0.0 | 0.0 | 0.00 | 0.05 | 0.05 | 97 | 1025.8 |
| 20260831115243 | 56 | 214 | 0.0 | 0.0 | 0.00 | 0.05 | 0.05 | 97 | 1025.9 |
| 20260831114741 | 57 | 142 | 0.0 | 0.0 | 0.00 | 0.05 | 0.05 | 97 | 1025.8 |
| 20260831114241 | 57 | 100 | 0.0 | 0.0 | 0.00 | 0.05 | 0.05 | 96 | 1025.8 |
| 20260831113736 | 56 | 149 | 0.0 | 0.0 | 0.00 | 0.05 | 0.05 | 95 | 1025.9 |
| 20260831113231 | 57 | 189 | 0.0 | 0.0 | 0.00 | 0.05 | 0.05 | 98 | 1026.3 |
| 20260831112730 | 57 | 189 | 0.0 | 0.0 | 0.00 | 0.05 | 0.05 | 98 | 1026.3 |
| 20260831112226 | 57 | 170 | 0.0 | 0.0 | 0.00 | 0.05 | 0.05 | 98 | 1026.2 |
| 20260831111721 | 57 | 159 | 0.0 | 0.0 | 0.00 | 0.05 | 0.05 | 98 | 1026.4 |
| 20260831111218 | 57 | 159 | 0.0 | 0.0 | 0.00 | 0.05 | 0.05 | 98 | 1026.7 |
| 20260831110713 | 57 | 153 | 0.0 | 0.0 | 0.00 | 0.05 | 0.05 | 98 | 1026.7 |
| 20260831110208 | 57 | 153 | 0.0 | 0.0 | 0.00 | 0.05 | 0.05 | 98 | 1026.7 |
| 20260831105706 | 57 | 165 | 0.0 | 0.0 | 0.00 | 0.05 | 0.05 | 98 | 1026.5 |
| 20260831105202 | 57 | 165 | 0.0 | 0.0 | 0.00 | 0.05 | 0.05 | 97 | 1026.7 |
| 20260831104657 | 57 | 165 | 0.0 | 0.0 | 0.00 | 0.05 | 0.05 | 97 | 1026.5 |
| 20260831104153 | 57 | 165 | 0.0 | 0.0 | 0.00 | 0.05 | 0.05 | 97 | 1026.5 |
| 20260831103648 | 57 | 170 | 0.0 | 0.0 | 0.00 | 0.05 | 0.05 | 97 | 1026.5 |
| 20260831103144 | 57 | 170 | 0.0 | 0.0 | 0.00 | 0.05 | 0.05 | 97 | 1026.8 |
| 20260831102643 | 57 | 140 | 0.0 | 0.0 | 0.00 | 0.05 | 0.05 | 97 | 1026.5 |
| 20260831102138 | 57 | 139 | 0.0 | 0.0 | 0.00 | 0.05 | 0.05 | 97 | 1026.4 |
| 20260831101633 | 57 | 139 | 0.0 | 0.0 | 0.00 | 0.05 | 0.05 | 97 | 1026.5 |
| 20260831101129 | 57 | 134 | 0.0 | 0.0 | 0.00 | 0.05 | 0.05 | 97 | 1026.5 |
| 20260831100625 | 57 | 164 | 0.0 | 0.0 | 0.00 | 0.05 | 0.05 | 97 | 1026.4 |
| 20260831100121 | 57 | 143 | 0.0 | 0.0 | 0.00 | 0.05 | 0.05 | 96 | 1026.4 |
| 20260831095619 | 57 | 112 | 0.0 | 1.0 | 0.00 | 0.05 | 0.05 | 96 | 1026.4 |
| 20260831095114 | 57 | 155 | 0.0 | 0.0 | 0.00 | 0.05 | 0.05 | 96 | 1026.3 |
| 20260831094610 | 57 | 136 | 0.0 | 0.0 | 0.00 | 0.05 | 0.05 | 96 | 1026.4 |
| 20260831094106 | 57 | 104 | 0.0 | 0.0 | 0.00 | 0.05 | 0.05 | 94 | 1026.3 |
| 20260831093601 | 57 | 142 | 0.0 | 0.0 | 0.00 | 0.05 | 0.05 | 91 | 1026.5 |
| 20260831093057 | 56 | 239 | 1.0 | 1.0 | 0.00 | 0.05 | 0.05 | 97 | 1026.4 |
| 20260831092553 | 56 | 146 | 0.0 | 0.0 | 0.00 | 0.05 | 0.05 | 97 | 1026.8 |
| 20260831092048 | 57 | 146 | 0.0 | 0.0 | 0.00 | 0.05 | 0.05 | 97 | 1026.8 |
| 20260831091548 | 56 | 136 | 0.0 | 0.0 | 0.00 | 0.05 | 0.05 | 97 | 1026.9 |
| 20260831091043 | 57 | 195 | 0.0 | 0.0 | 0.00 | 0.05 | 0.05 | 98 | 1026.9 |
| 20260831090538 | 57 | 202 | 0.0 | 0.0 | 0.00 | 0.05 | 0.05 | 97 | 1026.7 |
| 20260831090035 | 57 | 183 | 0.0 | 0.0 | 0.00 | 0.05 | 0.05 | 97 | 1026.8 |
| 20260831085530 | 56 | 180 | 0.0 | 0.0 | 0.00 | 0.05 | 0.05 | 97 | 1026.8 |
| 20260831085025 | 57 | 146 | 0.0 | 0.0 | 0.00 | 0.05 | 0.05 | 97 | 1026.4 |
| 20260831084521 | 57 | 130 | 0.0 | 0.0 | 0.00 | 0.05 | 0.05 | 97 | 1026.8 |
| 20260831084017 | 57 | 185 | 0.0 | 0.0 | 0.00 | 0.05 | 0.05 | 96 | 1026.4 |
| 20260831083512 | 57 | 151 | 0.0 | 0.0 | 0.00 | 0.05 | 0.05 | 96 | 1026.3 |
| 20260831083012 | 57 | 151 | 0.0 | 1.0 | 0.00 | 0.05 | 0.05 | 97 | 1026.2 |
| 20260831082506 | 57 | 166 | 0.0 | 0.0 | 0.00 | 0.05 | 0.05 | 96 | 1026.2 |
| 20260831082001 | 57 | 187 | 0.0 | 0.0 | 0.00 | 0.05 | 0.05 | 95 | 1026.4 |
| 20260831081456 | 57 | 195 | 0.0 | 0.0 | 0.00 | 0.05 | 0.05 | 94 | 1026.4 |
| 20260831080952 | 57 | 146 | 0.0 | 0.0 | 0.05 | 0.05 | 0.05 | 95 | 1026.2 |
| 20260831080446 | 57 | 137 | 0.0 | 0.0 | 0.28 | 0.05 | 0.05 | 94 | 1026.4 |
| 20260831075942 | 57 | 28 | 2.0 | 2.0 | 0.28 | 0.05 | 0.05 | 93 | 1026.5 |
| 20260831075438 | 57 | 200 | 0.0 | 0.0 | 0.00 | 0.00 | 0.00 | 93 | 1026.8 |
| 20260831074933 | 57 | 189 | 0.0 | 0.0 | 0.00 | 0.00 | 0.00 | 93 | 1026.5 |
| 20260831074427 | 57 | 190 | 0.0 | 0.0 | 0.00 | 0.00 | 0.00 | 94 | 1026.3 |
| 20260831073921 | 57 | 179 | 0.0 | 0.0 | 0.00 | 0.00 | 0.00 | 94 | 1026.2 |
| 20260831073421 | 57 | 190 | 0.0 | 0.0 | 0.00 | 0.00 | 0.00 | 94 | 1026.3 |
| 20260831072915 | 57 | 178 | 0.0 | 0.0 | 0.00 | 0.00 | 0.00 | 94 | 1026.2 |
| 20260831072411 | 57 | 197 | 0.0 | 0.0 | 0.00 | 0.00 | 0.00 | 93 | 1026.2 |
| 20260831071908 | 57 | 175 | 0.0 | 0.0 | 0.00 | 0.00 | 0.00 | 92 | 1026.3 |
| 20260831071406 | 57 | 94 | 0.0 | 0.0 | 0.00 | 0.00 | 0.00 | 92 | 1026.0 |
| 20260831070901 | 57 | 128 | 0.0 | 0.0 | 0.00 | 0.00 | 0.00 | 93 | 1026.0 |
| 20260831070400 | 57 | 168 | 0.0 | 0.0 | 0.00 | 0.00 | 0.00 | 92 | 1025.9 |
| 20260831065859 | 57 | 133 | 0.0 | 0.0 | 0.00 | 0.00 | 0.00 | 91 | 1025.9 |
| 20260831065357 | 57 | 140 | 0.0 | 1.0 | 0.00 | 0.00 | 0.00 | 95 | 1026.0 |
| 20260831064853 | 57 | 198 | 0.0 | 0.0 | 0.00 | 0.00 | 0.00 | 94 | 1026.3 |
| 20260831064348 | 57 | 170 | 0.0 | 0.0 | 0.00 | 0.00 | 0.00 | 92 | 1025.9 |